| time (UTC) | temp C | wind direction | speed KPH | gust KPH | rain 1hr cm | rain 24hr cm | rain mn cm | humidity % | barometer mb |
| 20260504050257 | 12 | 222 | 3.2 | 25.7 | 0.00 | 0.03 | 0.00 | 51 | 1007.6 |
| 20260504045259 | 12 | 0 | 1.6 | 24.1 | 0.00 | 0.03 | 0.00 | 52 | 1007.6 |
| 20260504044257 | 12 | 223 | 3.2 | 24.1 | 0.00 | 0.03 | 0.00 | 51 | 1007.7 |
| 20260504043731 | 12 | 217 | 4.8 | 24.1 | 0.00 | 0.03 | 0.00 | 51 | 1007.6 |
| 20260504042713 | 12 | 246 | 3.2 | 24.1 | 0.00 | 0.03 | 0.00 | 50 | 1007.7 |
| 20260504042443 | 12 | 221 | 3.2 | 25.7 | 0.00 | 0.03 | 0.00 | 51 | 1007.7 |
| 20260504035250 | 12 | 242 | 1.6 | 22.5 | 0.00 | 0.03 | 0.03 | 51 | 1007.5 |
| 20260504034250 | 12 | 227 | 1.6 | 22.5 | 0.00 | 0.03 | 0.03 | 51 | 1007.5 |
| 20260504033250 | 12 | 228 | 1.6 | 19.3 | 0.00 | 0.03 | 0.03 | 52 | 1007.6 |
| 20260504032249 | 12 | 225 | 0.0 | 11.3 | 0.00 | 0.03 | 0.03 | 53 | 1007.7 |
| 20260504031248 | 12 | 242 | 0.0 | 8.0 | 0.00 | 0.03 | 0.03 | 53 | 1007.7 |
| 20260504030248 | 12 | 198 | 1.6 | 16.1 | 0.00 | 0.03 | 0.03 | 53 | 1007.7 |
| 20260504025248 | 12 | 216 | 1.6 | 14.5 | 0.00 | 0.03 | 0.03 | 54 | 1007.8 |
| 20260504024248 | 12 | 220 | 1.6 | 14.5 | 0.00 | 0.03 | 0.03 | 55 | 1007.7 |
| 20260504023248 | 12 | 225 | 1.6 | 16.1 | 0.00 | 0.03 | 0.03 | 56 | 1007.8 |
| 20260504022248 | 12 | 222 | 0.0 | 9.7 | 0.00 | 0.03 | 0.03 | 56 | 1007.9 |
| 20260504021248 | 11 | 223 | 0.0 | 9.7 | 0.00 | 0.03 | 0.03 | 60 | 1008.0 |
| 20260504020248 | 11 | 205 | 0.0 | 0.0 | 0.00 | 0.03 | 0.03 | 67 | 1008.0 |
| 20260504015248 | 11 | 200 | 0.0 | 0.0 | 0.00 | 0.03 | 0.03 | 71 | 1008.1 |
| 20260504014247 | 10 | 199 | 0.0 | 0.0 | 0.00 | 0.03 | 0.03 | 74 | 1008.1 |
| 20260504013248 | 10 | 197 | 0.0 | 0.0 | 0.00 | 0.03 | 0.03 | 78 | 1008.1 |
| 20260504012247 | 10 | 195 | 0.0 | 0.0 | 0.00 | 0.03 | 0.03 | 82 | 1008.1 |
| 20260504011247 | 9 | 225 | 0.0 | 0.0 | 0.00 | 0.03 | 0.03 | 84 | 1008.2 |
| 20260504010246 | 9 | 238 | 0.0 | 0.0 | 0.00 | 0.03 | 0.03 | 85 | 1008.4 |
| 20260504005720 | 9 | 237 | 0.0 | 0.0 | 0.03 | 0.03 | 0.03 | 85 | 1008.6 |
| 20260504004246 | 9 | 237 | 0.0 | 0.0 | 0.03 | 0.03 | 0.03 | 84 | 1008.6 |
| 20260504003244 | 10 | 238 | 0.0 | 0.0 | 0.03 | 0.03 | 0.03 | 83 | 1008.7 |
| 20260504002238 | 10 | 237 | 0.0 | 0.0 | 0.03 | 0.03 | 0.03 | 82 | 1008.7 |
| 20260504001236 | 10 | 241 | 0.0 | 1.6 | 0.03 | 0.03 | 0.03 | 80 | 1009.0 |
| 20260504000235 | 10 | 241 | 0.0 | 0.0 | 0.03 | 0.03 | 0.03 | 78 | 1009.0 |
| 20260503235233 | 10 | 262 | 0.0 | 11.3 | 0.00 | 0.00 | 0.00 | 76 | 1008.8 |
| 20260503234233 | 10 | 0 | 0.0 | 11.3 | 0.00 | 0.00 | 0.00 | 73 | 1008.7 |
| 20260503233231 | 10 | 232 | 3.2 | 19.3 | 0.00 | 0.00 | 0.00 | 72 | 1008.6 |
| 20260503232232 | 11 | 252 | 6.4 | 30.6 | 0.00 | 0.00 | 0.00 | 67 | 1008.8 |
| 20260503231232 | 12 | 248 | 0.0 | 9.7 | 0.00 | 0.00 | 0.00 | 60 | 1008.6 |
| 20260503230231 | 12 | 242 | 3.2 | 20.9 | 0.00 | 0.00 | 0.00 | 56 | 1008.4 |
| 20260503225231 | 12 | 0 | 1.6 | 19.3 | 0.00 | 0.00 | 0.00 | 54 | 1008.3 |
| 20260503224232 | 12 | 258 | 1.6 | 25.7 | 0.00 | 0.00 | 0.00 | 52 | 1008.1 |
| 20260503224151 | 12 | 222 | 6.4 | 30.6 | 0.00 | 0.00 | 0.00 | 51 | 1008.1 |
| 20260503222231 | 12 | 224 | 8.0 | 38.6 | 0.00 | 0.00 | 0.00 | 49 | 1008.0 |
| 20260503221232 | 13 | 228 | 4.8 | 25.7 | 0.00 | 0.00 | 0.00 | 47 | 1008.0 |
| 20260503220231 | 13 | 250 | 4.8 | 22.5 | 0.00 | 0.00 | 0.00 | 46 | 1007.9 |
| 20260503215232 | 13 | 230 | 1.6 | 12.9 | 0.00 | 0.00 | 0.00 | 46 | 1007.9 |
| 20260503214232 | 13 | 211 | 3.2 | 27.4 | 0.00 | 0.00 | 0.00 | 46 | 1007.7 |
| 20260503213232 | 13 | 224 | 0.0 | 16.1 | 0.00 | 0.00 | 0.00 | 50 | 1008.0 |
| 20260503212231 | 13 | 212 | 4.8 | 22.5 | 0.00 | 0.00 | 0.00 | 49 | 1008.4 |
| 20260503211231 | 13 | 246 | 8.0 | 32.2 | 0.00 | 0.00 | 0.00 | 46 | 1008.2 |
| 20260503210231 | 13 | 0 | 3.2 | 25.7 | 0.00 | 0.00 | 0.00 | 44 | 1008.4 |
| 20260503205710 | 13 | 219 | 3.2 | 30.6 | 0.00 | 0.00 | 0.00 | 43 | 1008.1 |
| 20260503204231 | 13 | 233 | 4.8 | 30.6 | 0.00 | 0.00 | 0.00 | 42 | 1008.1 |
| 20260503203231 | 13 | 239 | 4.8 | 25.7 | 0.00 | 0.00 | 0.00 | 42 | 1008.2 |
| 20260503202231 | 13 | 252 | 4.8 | 25.7 | 0.00 | 0.00 | 0.00 | 40 | 1008.4 |
| 20260503201231 | 13 | 238 | 3.2 | 22.5 | 0.00 | 0.00 | 0.00 | 40 | 1008.5 |
| 20260503200231 | 13 | 196 | 8.0 | 32.2 | 0.00 | 0.00 | 0.00 | 38 | 1008.6 |
| 20260503195231 | 14 | 0 | 4.8 | 25.7 | 0.00 | 0.00 | 0.00 | 39 | 1008.8 |
| 20260503194956 | 13 | 0 | 8.0 | 25.7 | 0.00 | 0.00 | 0.00 | 40 | 1009.6 |
| 20260503194854 | 13 | 213 | 6.4 | 30.6 | 0.00 | 0.00 | 0.00 | 38 | 1009.7 |
| 20260503194707 | 13 | 267 | 6.4 | 32.2 | 0.00 | 0.00 | 0.00 | 38 | 1008.9 |
| 20260503194636 | 13 | 234 | 6.4 | 37.0 | 0.00 | 0.00 | 0.00 | 38 | 1009.4 |
| 20260503194625 | 13 | 246 | 4.8 | 25.7 | 0.00 | 0.00 | 0.00 | 38 | 1009.3 |
| 20260503185229 | 13 | 0 | 4.8 | 24.1 | 0.00 | 0.00 | 0.00 | 38 | 1010.0 |
| 20260503184709 | 13 | 261 | 4.8 | 25.7 | 0.00 | 0.00 | 0.00 | 38 | 1010.2 |
| 20260503183229 | 13 | 298 | 3.2 | 19.3 | 0.00 | 0.00 | 0.00 | 40 | 1010.3 |
| 20260503182229 | 13 | 276 | 3.2 | 19.3 | 0.00 | 0.00 | 0.00 | 39 | 1010.3 |
| 20260503182151 | 12 | 242 | 1.6 | 20.9 | 0.00 | 0.00 | 0.00 | 43 | 1010.4 |
| 20260503180229 | 12 | 274 | 0.0 | 6.4 | 0.00 | 0.00 | 0.00 | 50 | 1010.5 |
| 20260503175704 | 12 | 269 | 0.0 | 0.0 | 0.00 | 0.00 | 0.00 | 55 | 1010.6 |
| 20260503174710 | 11 | 11 | 0.0 | 0.0 | 0.00 | 0.00 | 0.00 | 54 | 1010.6 |
| 20260503173230 | 11 | 5 | 0.0 | 0.0 | 0.00 | 0.00 | 0.00 | 56 | 1010.7 |
| 20260503172230 | 10 | 5 | 0.0 | 0.0 | 0.00 | 0.00 | 0.00 | 59 | 1010.9 |
| 20260503171229 | 10 | 10 | 0.0 | 0.0 | 0.00 | 0.00 | 0.00 | 58 | 1011.1 |
| 20260503170230 | 10 | 10 | 0.0 | 0.0 | 0.00 | 0.00 | 0.00 | 60 | 1011.3 |
| 20260503150228 | 10 | 219 | 0.0 | 14.5 | 0.00 | 0.00 | 0.00 | 52 | 1012.1 |
| 20260503140229 | 9 | 249 | 0.0 | 6.4 | 0.00 | 0.00 | 0.00 | 55 | 1012.8 |
| 20260503131229 | 7 | 250 | 1.6 | 12.9 | 0.00 | 0.00 | 0.00 | 57 | 1013.3 |
| 20260503130707 | 7 | 231 | 0.0 | 3.2 | 0.00 | 0.00 | 0.00 | 57 | 1013.3 |
| 20260503110229 | 2 | 230 | 0.0 | 0.0 | 0.00 | 0.00 | 0.00 | 77 | 1013.3 |
| 20260503100229 | 2 | 230 | 0.0 | 0.0 | 0.00 | 0.00 | 0.00 | 80 | 1013.0 |
| 20260503090228 | 2 | 0 | 0.0 | 0.0 | 0.00 | 0.00 | 0.00 | 80 | 1013.0 |
| 20260503081228 | 3 | 228 | 0.0 | 0.0 | 0.00 | 0.00 | 0.00 | 78 | 1013.1 |
| 20260503080229 | 3 | 228 | 0.0 | 0.0 | 0.00 | 0.00 | 0.00 | 78 | 1013.1 |
| 20260503072227 | 3 | 228 | 0.0 | 0.0 | 0.00 | 0.00 | 0.00 | 79 | 1013.1 |
| 20260503071228 | 3 | 229 | 0.0 | 0.0 | 0.00 | 0.00 | 0.00 | 79 | 1013.1 |
| 20260503070228 | 3 | 229 | 0.0 | 0.0 | 0.00 | 0.00 | 0.00 | 78 | 1013.1 |
| 20260503060228 | 4 | 230 | 0.0 | 0.0 | 0.00 | 0.00 | 0.00 | 74 | 1013.4 |
| 20260503054702 | 4 | 229 | 0.0 | 0.0 | 0.00 | 0.00 | 0.00 | 73 | 1013.4 |
| 20260503053228 | 5 | 230 | 0.0 | 0.0 | 0.00 | 0.00 | 0.00 | 73 | 1013.4 |